When you browse on this site, cookies collect data to enhance your experience and personalize the content and advertising you see.
Visit our Privacy Policy to learn more. By continuing to use the site, you agree to this use of cookies and data.
  • In Spain
  • List of Countries
  • For 7 days
  • Water Temperature
  • Satellite Maps
  • Weather Map
  • Weather Widgets
  • user-avatar
    Login

    Hourly Weather Dublin

    Today, 18 January, Friday

    Time Temperature Precipitation Wind Pressure Humidity
    00:00 0°C° 0 mm 4 mps 744 mmHg 71%
    01:00 +1°C° 0.3 mm 5 mps 743 mmHg 73%
    02:00 +1°C° 0.3 mm 6 mps 742 mmHg 74%
    03:00 0°C° 0.3 mm 7 mps 741 mmHg 76%
    04:00 0°C° 0.9 mm 7 mps 741 mmHg 79%
    05:00 +1°C° 0.9 mm 8 mps 740 mmHg 83%
    06:00 +1°C° 0.9 mm 9 mps 739 mmHg 86%
    07:00 +1°C° 0.3 mm 8 mps 739 mmHg 88%
    08:00 +2°C° 0.3 mm 8 mps 738 mmHg 90%
    09:00 +3°C° 0.3 mm 7 mps 738 mmHg 92%
    10:00 +4°C° 0 mm 6 mps 737 mmHg 92%
    11:00 +5°C° 0 mm 5 mps 737 mmHg 91%
    12:00 +6°C° 0 mm 4 mps 737 mmHg 90%
    13:00 +7°C° 0 mm 3 mps 737 mmHg 89%
    14:00 +7°C° 0 mm 3 mps 736 mmHg 89%
    15:00 +7°C° 0 mm 3 mps 736 mmHg 88%
    16:00 +5°C° 0 mm 3 mps 736 mmHg 90%
    17:00 +4°C° 0 mm 3 mps 736 mmHg 92%
    18:00 +3°C° 0 mm 3 mps 736 mmHg 93%
    19:00 +3°C° 0.1 mm 3 mps 736 mmHg 93%
    20:00 +3°C° 0.1 mm 3 mps 736 mmHg 92%
    21:00 +4°C° 0.1 mm 3 mps 736 mmHg 92%
    22:00 +4°C° 0.3 mm 3 mps 736 mmHg 93%
    23:00 +3°C° 0.3 mm 3 mps 736 mmHg 93%

    Tomorrow, 19 January, Saturday

    Time Temperature Precipitation Wind Pressure Humidity
    00:00 +4°C° 0.3 mm 2 mps 735 mmHg 94%
    01:00 +4°C° 0.1 mm 2 mps 735 mmHg 94%
    02:00 +4°C° 0.1 mm 2 mps 735 mmHg 94%
    03:00 +3°C° 0.1 mm 2 mps 735 mmHg 95%
    04:00 +3°C° 0 mm 2 mps 735 mmHg 95%
    05:00 +3°C° 0 mm 2 mps 735 mmHg 96%
    06:00 +2°C° 0 mm 2 mps 735 mmHg 96%
    07:00 +3°C° 0.1 mm 2 mps 735 mmHg 96%
    08:00 +4°C° 0.1 mm 2 mps 736 mmHg 97%
    09:00 +4°C° 0.1 mm 2 mps 736 mmHg 97%
    10:00 +6°C° 0 mm 1 mps 736 mmHg 95%
    11:00 +6°C° 0 mm 1 mps 736 mmHg 93%
    12:00 +7°C° 0 mm 1 mps 737 mmHg 91%
    13:00 +7°C° 0 mm 1 mps 737 mmHg 91%
    14:00 +6°C° 0 mm 1 mps 737 mmHg 92%
    15:00 +5°C° 0 mm 2 mps 737 mmHg 92%
    16:00 +5°C° 0 mm 2 mps 737 mmHg 92%
    17:00 +5°C° 0 mm 2 mps 738 mmHg 92%
    18:00 +4°C° 0 mm 2 mps 738 mmHg 92%
    19:00 +4°C° 0 mm 2 mps 739 mmHg 92%
    20:00 +4°C° 0 mm 2 mps 739 mmHg 92%
    21:00 +4°C° 0 mm 2 mps 740 mmHg 92%
    22:00 +4°C° 0 mm 2 mps 740 mmHg 92%
    23:00 +4°C° 0 mm 2 mps 741 mmHg 92%

    Day after tomorrow, 20 January, Sunday

    Time Temperature Precipitation Wind Pressure Humidity
    00:00 +4°C° 0 mm 2 mps 741 mmHg 92%
    01:00 +3°C° 0 mm 2 mps 742 mmHg 93%
    02:00 +3°C° 0 mm 2 mps 742 mmHg 95%
    03:00 +3°C° 0 mm 2 mps 742 mmHg 96%
    04:00 +3°C° 0 mm 2 mps 743 mmHg 96%
    05:00 +3°C° 0 mm 2 mps 743 mmHg 97%
    06:00 +3°C° 0 mm 3 mps 744 mmHg 97%
    07:00 +3°C° 0.1 mm 3 mps 745 mmHg 97%
    08:00 +4°C° 0.1 mm 4 mps 746 mmHg 96%
    09:00 +3°C° 0.1 mm 5 mps 746 mmHg 95%
    10:00 +3°C° 0.1 mm 6 mps 747 mmHg 92%
    11:00 +3°C° 0.1 mm 6 mps 748 mmHg 90%
    12:00 +3°C° 0.1 mm 7 mps 748 mmHg 87%
    13:00 +3°C° 0 mm 7 mps 749 mmHg 86%
    14:00 +3°C° 0 mm 7 mps 749 mmHg 84%
    15:00 +3°C° 0 mm 7 mps 750 mmHg 83%
    16:00 +2°C° 0 mm 6 mps 750 mmHg 84%
    17:00 +1°C° 0 mm 6 mps 751 mmHg 85%
    18:00 -1°C° 0 mm 6 mps 752 mmHg 87%
    19:00 0°C° 0 mm 5 mps 752 mmHg 87%
    20:00 -1°C° 0 mm 5 mps 753 mmHg 88%
    21:00 -1°C° 0 mm 4 mps 753 mmHg 88%
    22:00 -2°C° 0 mm 4 mps 754 mmHg 88%
    23:00 -1°C° 0 mm 3 mps 754 mmHg 89%

    21 January, Monday

    Time Temperature Precipitation Wind Pressure Humidity
    00:00 -1°C° 0 mm 3 mps 754 mmHg 90%
    01:00 -1°C° 0 mm 3 mps 754 mmHg 90%
    02:00 -2°C° 0 mm 3 mps 754 mmHg 90%
    03:00 -2°C° 0 mm 3 mps 753 mmHg 90%
    04:00 -2°C° 0 mm 3 mps 753 mmHg 89%
    05:00 -1°C° 0 mm 3 mps 753 mmHg 88%
    06:00 -1°C° 0 mm 3 mps 753 mmHg 87%
    07:00 -2°C° 0.1 mm 4 mps 752 mmHg 85%
    08:00 -1°C° 0.1 mm 5 mps 752 mmHg 84%
    09:00 0°C° 0.1 mm 5 mps 751 mmHg 82%
    10:00 +1°C° 0.3 mm 6 mps 750 mmHg 82%
    11:00 0°C° 0.3 mm 7 mps 749 mmHg 82%
    12:00 +1°C° 0.3 mm 8 mps 748 mmHg 82%
    13:00 +2°C° 0.1 mm 9 mps 746 mmHg 82%
    14:00 +2°C° 0.1 mm 10 mps 744 mmHg 83%
    15:00 +3°C° 0.1 mm 10 mps 742 mmHg 83%
    16:00 +2°C° 0.7 mm 10 mps 741 mmHg 84%
    17:00 +2°C° 0.7 mm 9 mps 740 mmHg 85%
    18:00 +2°C° 0.7 mm 9 mps 739 mmHg 86%
    19:00 +1°C° 0.2 mm 8 mps 740 mmHg 84%
    20:00 -1°C° 0.2 mm 8 mps 740 mmHg 83%
    21:00 -2°C° 0.2 mm 7 mps 740 mmHg 81%
    22:00 -3°C° 0 mm 7 mps 740 mmHg 80%
    23:00 -4°C° 0 mm 8 mps 739 mmHg 80%

    22 January, Tuesday

    Time Temperature Precipitation Wind Pressure Humidity
    00:00 -4°C° 0 mm 8 mps 739 mmHg 79%
    01:00 -4°C° 0 mm 9 mps 738 mmHg 79%
    02:00 -4°C° 0 mm 9 mps 738 mmHg 78%
    03:00 -3°C° 0 mm 9 mps 737 mmHg 78%
    04:00 -4°C° 0 mm 8 mps 737 mmHg 78%
    05:00 -4°C° 0 mm 8 mps 737 mmHg 79%
    06:00 -3°C° 0 mm 7 mps 736 mmHg 80%
    07:00 -3°C° 0 mm 7 mps 736 mmHg 80%
    08:00 -3°C° 0 mm 7 mps 737 mmHg 81%
    09:00 -3°C° 0 mm 6 mps 737 mmHg 82%
    10:00 -2°C° 0.1 mm 6 mps 736 mmHg 81%
    11:00 -2°C° 0.1 mm 7 mps 736 mmHg 81%
    12:00 -1°C° 0.1 mm 7 mps 736 mmHg 80%
    13:00 -1°C° 0.2 mm 6 mps 736 mmHg 80%
    14:00 -1°C° 0.2 mm 6 mps 735 mmHg 80%
    15:00 -1°C° 0.2 mm 6 mps 735 mmHg 80%
    16:00 -1°C° 0.1 mm 6 mps 735 mmHg 81%
    17:00 -2°C° 0.1 mm 6 mps 734 mmHg 82%
    18:00 -2°C° 0.1 mm 6 mps 734 mmHg 84%
    19:00 -3°C° 0 mm 6 mps 734 mmHg 85%
    20:00 -3°C° 0 mm 6 mps 734 mmHg 86%
    21:00 -2°C° 0 mm 5 mps 734 mmHg 88%
    22:00 -3°C° 0 mm 6 mps 734 mmHg 87%
    23:00 -3°C° 0 mm 6 mps 733 mmHg 87%

    23 January, Wednesday

    Time Temperature Precipitation Wind Pressure Humidity
    00:00 -2°C° 0 mm 6 mps 733 mmHg 87%
    01:00 -2°C° 0.1 mm 6 mps 733 mmHg 86%
    02:00 -3°C° 0.1 mm 7 mps 733 mmHg 85%
    03:00 -3°C° 0.1 mm 7 mps 733 mmHg 84%
    04:00 -3°C° 0 mm 6 mps 733 mmHg 84%
    05:00 -4°C° 0 mm 6 mps 733 mmHg 84%
    06:00 -4°C° 0 mm 6 mps 733 mmHg 84%
    07:00 -4°C° 0 mm 6 mps 734 mmHg 85%
    08:00 -4°C° 0 mm 5 mps 734 mmHg 85%
    09:00 -4°C° 0 mm 5 mps 734 mmHg 86%
    10:00 -3°C° 0 mm 6 mps 734 mmHg 84%
    11:00 -1°C° 0 mm 6 mps 735 mmHg 83%
    12:00 0°C° 0 mm 7 mps 735 mmHg 81%
    13:00 0°C° 0.1 mm 7 mps 734 mmHg 81%
    14:00 0°C° 0.1 mm 7 mps 734 mmHg 80%
    15:00 +1°C° 0.1 mm 6 mps 734 mmHg 79%
    16:00 +1°C° 0.1 mm 6 mps 734 mmHg 81%
    17:00 -1°C° 0.1 mm 6 mps 734 mmHg 84%
    18:00 -1°C° 0.1 mm 6 mps 735 mmHg 86%
    19:00 0°C° 0.2 mm 5 mps 735 mmHg 87%
    20:00 -1°C° 0.2 mm 5 mps 736 mmHg 88%
    21:00 -1°C° 0.2 mm 5 mps 737 mmHg 89%
    22:00 -1°C° 0 mm 5 mps 738 mmHg 87%
    23:00 -1°C° 0 mm 5 mps 739 mmHg 85%
    Show more